Burnet, TX

7:43 PM CDT on March 28, 2017 (GMT -0500)
Burnet Municipal-Craddock

Weather History for KBMQ - September, 2013

Change the Weather History Date:

Saturday, September 7, 2013

  Actual Average Record
Temperature  
Mean Temperature 83 °F -  
Max Temperature 96 °F 88 °F 102 °F (2012)
Min Temperature 71 °F 68 °F 61 °F (2011)
Cooling Degree Days 18    
Growing Degree Days 33 (Base 50)    
Moisture  
Dew Point 67 °F    
Average Humidity 64    
Maximum Humidity 87    
Minimum Humidity 32    
Precipitation  
Precipitation 0.00 in - - ()
Sea Level Pressure  
Sea Level Pressure 29.98 in    
Wind  
Wind Speed 4 mph (SE)    
Max Wind Speed 14 mph    
Max Gust Speed 25 mph    
Visibility 10 miles    
Events      
Averages and records for this station are not official NWS values.
T = Trace of Precipitation, MM = Missing Value Source: NWS Daily Summary

Daily Weather History Graph

Daily Weather History Graph

Search for Another Location

Airport or City:

Trip Planner

Search our weather history database for the weather conditions in past years. The results will help you decide how hot, cold, wet, or windy it might be!

Date:

Astronomy

Sep. 07, 2013 Rise Set
Actual Time 7:12 AM CDT 7:48 PM CDT
Civil Twilight 6:48 AM CDT 8:12 PM CDT
Nautical Twilight 6:19 AM CDT 8:41 PM CDT
Astronomical Twilight 5:50 AM CDT 9:10 PM CDT
Moon 9:15 AM CDT (9/7) 9:02 PM CDT (9/7)
Length of Visible Light 13h 23m
Length of Day
12h 35m
Waxing Crescent, 5% of the Moon is Illuminated
Sep 7
Waxing Crescent
Sep 12
First Quarter
Sep 19
Full
Sep 26
Last Quarter
Oct 4
New

Hourly Weather History & Observations

Time (CDT) Temp. Heat Index Dew Point Humidity Pressure Visibility Wind Dir Wind Speed Gust Speed Precip Events Conditions
12:53 AM 79.0 °F - 69.1 °F 72% 29.99 in 10.0 mi South 4.6 mph - N/A   Clear
1:53 AM 78.1 °F - 69.1 °F 74% 29.99 in 10.0 mi Calm Calm - N/A   Clear
2:53 AM 77.0 °F - 69.1 °F 76% 29.98 in 10.0 mi Calm Calm - N/A   Clear
3:53 AM 75.9 °F - 69.1 °F 79% 29.98 in 10.0 mi Calm Calm - N/A   Clear
4:53 AM 73.0 °F - 68.0 °F 84% 29.99 in 10.0 mi Calm Calm - N/A   Clear
5:53 AM 73.0 °F - 66.9 °F 81% 29.99 in 10.0 mi Calm Calm - N/A   Clear
6:53 AM 71.1 °F - 66.9 °F 87% 30.01 in 10.0 mi South 3.5 mph - N/A   Clear
7:53 AM 73.0 °F - 69.1 °F 87% 30.01 in 8.0 mi Calm Calm - N/A   Clear
8:53 AM 77.0 °F - 71.1 °F 82% 30.03 in 10.0 mi Variable 3.5 mph - N/A   Clear
9:53 AM 81.0 °F 84.9 °F 71.1 °F 72% 30.04 in 10.0 mi Calm Calm - N/A   Clear
10:53 AM 84.0 °F 87.8 °F 69.1 °F 61% 30.04 in 10.0 mi Variable 3.5 mph - N/A   Partly Cloudy
11:53 AM 84.9 °F 88.2 °F 68.0 °F 57% 30.04 in 10.0 mi SSW 4.6 mph - N/A   Partly Cloudy
12:53 PM 90.0 °F 92.4 °F 66.0 °F 45% 30.01 in 10.0 mi Calm Calm - N/A   Partly Cloudy
1:53 PM 91.0 °F 93.0 °F 64.9 °F 42% 29.99 in 10.0 mi ESE 11.5 mph - N/A   Partly Cloudy
2:53 PM 93.0 °F 94.2 °F 63.0 °F 37% 29.95 in 10.0 mi ESE 9.2 mph - N/A   Scattered Clouds
3:53 PM 95.0 °F 95.6 °F 62.1 °F 33% 29.92 in 10.0 mi Variable 6.9 mph 17.3 mph N/A   Mostly Cloudy
4:53 PM 95.0 °F 95.2 °F 61.0 °F 32% 29.90 in 10.0 mi ENE 8.1 mph - N/A   Scattered Clouds
5:53 PM 93.9 °F 94.0 °F 61.0 °F 33% 29.90 in 10.0 mi East 10.4 mph - N/A   Scattered Clouds
6:53 PM 84.0 °F 87.0 °F 68.0 °F 58% 29.94 in 10.0 mi SE 13.8 mph 25.3 mph N/A   Mostly Cloudy
7:53 PM 81.0 °F 82.5 °F 64.0 °F 56% 29.95 in 10.0 mi SE 12.7 mph 21.9 mph N/A   Partly Cloudy
8:53 PM 78.1 °F - 64.0 °F 62% 29.96 in 10.0 mi SE 8.1 mph - N/A   Clear
9:53 PM 77.0 °F - 64.9 °F 66% 29.96 in 10.0 mi South 5.8 mph - N/A   Clear
10:53 PM 75.0 °F - 66.9 °F 76% 29.96 in 10.0 mi Calm Calm - N/A   Clear
11:53 PM 75.0 °F - 66.9 °F 76% 29.97 in 10.0 mi SE 3.5 mph - N/A   Clear